Overview Statistics Trail Chart Weather Telemetry Raw packets
 

This is the latest recevied weather packets stored in our database for station/object GW4003. If no packets are shown the sender has not sent any weather packets the latest 10 day(s).

<< 39 40 41 42 43 44 45 >>
Time Temp. Humidity Pressure Rain* Wind** Luminosity Snow
1788375024 30° C 24% 1018.9 hPa 0 mm - - -
1788374720 29.44° C 24% 1019 hPa 0 mm - - -
1788374416 30° C 25% 1018.9 hPa 0 mm - - -
1788374112 29.44° C 24% 1019.1 hPa 0 mm - - -
1788373807 29.44° C 24% 1019.1 hPa 0 mm - - -
1788373504 29.44° C 24% 1019.2 hPa 0 mm - - -
1788373201 29.44° C 24% 1019.2 hPa 0 mm - - -
1788372896 29.44° C 25% 1019.4 hPa 0 mm - - -
1788372593 29.44° C 25% 1019.6 hPa 0 mm - - -
1788372289 29.44° C 26% 1019.6 hPa 0 mm - - -
1788371984 28.89° C 25% 1019.7 hPa 0 mm - - -
1788371681 28.89° C 26% 1019.8 hPa 0 mm - - -
1788371377 28.33° C 27% 1019.9 hPa 0 mm - - -
1788371073 28.33° C 27% 1020 hPa 0 mm - - -
1788370769 28.33° C 26% 1020.1 hPa 0 mm - - -
1788370466 28.33° C 27% 1020.1 hPa 0 mm - - -
1788370161 28.33° C 27% 1020.1 hPa 0 mm - - -
1788369858 27.78° C 30% 1020.1 hPa 0 mm - - -
1788369554 27.22° C 28% 1020.1 hPa 0 mm - - -
1788369251 27.22° C 29% 1020.3 hPa 0 mm - - -
1788368947 27.22° C 29% 1020.3 hPa 0 mm - - -
1788368644 27.22° C 30% 1020.4 hPa 0 mm - - -
1788368340 27.22° C 31% 1020.3 hPa 0 mm - - -
1788368036 26.67° C 32% 1020.4 hPa 0 mm - - -
1788367733 26.67° C 31% 1020.4 hPa 0 mm - - -

* Rain latest hour (hover to see other rain measurements)
** Current wind speed in m/s (hover to see current wind gust speed)